TGL971C LFPG-EGAA

Flight info

Callsign TGL971C
Flight time 1h 22m
Altitude 38000
Route ATREX DCT VESAN DCT RATUK DCT SOVAT DCT LESTA UP6 RODOL UM65 TENSO L603 BELOX DCT REMSI DCT UVPOK M147 ROBOP M146 IPSET P6 BELZU
Aircraft A320/M-SDE3FGHIRWY/LB1

Departure

Time 2026-04-30 10:40
Airport Charles de Gaulle International Airport (LFPG)

Arrival

Time 2026-04-30 12:02
Airport Belfast International Airport (EGAA)
Time Latitude Longitude Altitude Speed Heading
2026-04-30 10:00 49.00554 2.56803 355 ft 0 kts 168°
2026-04-30 10:19 49.00565 2.56800 359 ft 3 kts 171°
2026-04-30 10:20 49.00589 2.56796 358 ft 3 kts 181°
2026-04-30 10:20 49.00628 2.56821 359 ft 3 kts 261°
2026-04-30 10:20 49.00628 2.56832 364 ft 0 kts 265°
2026-04-30 10:23 49.00628 2.56815 359 ft 5 kts 265°
2026-04-30 10:23 49.00623 2.56724 361 ft 13 kts 266°
2026-04-30 10:24 49.00616 2.56588 357 ft 13 kts 265°
2026-04-30 10:24 49.00627 2.56464 358 ft 11 kts 277°
2026-04-30 10:24 49.00621 2.56349 356 ft 10 kts 264°
2026-04-30 10:24 49.00616 2.56244 354 ft 9 kts 265°
2026-04-30 10:25 49.00612 2.56188 354 ft 0 kts 265°
2026-04-30 10:26 49.00611 2.56164 354 ft 5 kts 264°
2026-04-30 10:26 49.00604 2.56082 363 ft 10 kts 256°
2026-04-30 10:26 49.00575 2.55946 361 ft 10 kts 258°
2026-04-30 10:27 49.00569 2.55877 357 ft 10 kts 264°
2026-04-30 10:27 49.00563 2.55755 358 ft 13 kts 265°
2026-04-30 10:27 49.00555 2.55595 354 ft 17 kts 265°
2026-04-30 10:27 49.00567 2.55431 359 ft 15 kts 313°
2026-04-30 10:28 49.00661 2.55378 358 ft 14 kts 344°
2026-04-30 10:28 49.00752 2.55338 361 ft 13 kts 344°
2026-04-30 10:28 49.00834 2.55303 358 ft 12 kts 344°
2026-04-30 10:28 49.00910 2.55268 354 ft 11 kts 343°
2026-04-30 10:29 49.00981 2.55238 357 ft 10 kts 345°
2026-04-30 10:29 49.01046 2.55210 354 ft 9 kts 344°
2026-04-30 10:29 49.01105 2.55184 359 ft 8 kts 343°
2026-04-30 10:29 49.01164 2.55160 358 ft 10 kts 351°
2026-04-30 10:30 49.01236 2.55174 361 ft 11 kts 21°
2026-04-30 10:30 49.01315 2.55218 354 ft 13 kts
2026-04-30 10:30 49.01406 2.55195 359 ft 14 kts 346°
2026-04-30 10:30 49.01509 2.55170 354 ft 16 kts 353°
2026-04-30 10:31 49.01623 2.55155 356 ft 18 kts 356°
2026-04-30 10:31 49.01753 2.55139 358 ft 20 kts 355°
2026-04-30 10:31 49.01867 2.55118 358 ft 15 kts 350°
2026-04-30 10:31 49.01943 2.55054 357 ft 11 kts 290°
2026-04-30 10:32 49.01941 2.54948 356 ft 9 kts 265°
2026-04-30 10:32 49.01937 2.54855 354 ft 8 kts 265°
2026-04-30 10:32 49.01932 2.54772 361 ft 8 kts 265°
2026-04-30 10:32 49.01927 2.54680 358 ft 9 kts 266°
2026-04-30 10:33 49.01924 2.54581 354 ft 10 kts 266°
2026-04-30 10:33 49.01917 2.54472 358 ft 11 kts 265°
2026-04-30 10:33 49.01911 2.54354 354 ft 12 kts 266°
2026-04-30 10:33 49.01910 2.54225 354 ft 13 kts 275°
2026-04-30 10:34 49.01899 2.54096 358 ft 12 kts 262°
2026-04-30 10:34 49.01892 2.53970 354 ft 12 kts 265°
2026-04-30 10:34 49.01885 2.53845 360 ft 12 kts 266°
2026-04-30 10:34 49.01878 2.53715 356 ft 12 kts 265°
2026-04-30 10:35 49.01871 2.53592 354 ft 11 kts 265°
2026-04-30 10:35 49.01863 2.53476 354 ft 11 kts 263°
2026-04-30 10:35 49.01855 2.53362 354 ft 11 kts 264°
2026-04-30 10:35 49.01850 2.53249 355 ft 11 kts 267°
2026-04-30 10:36 49.01845 2.53127 361 ft 12 kts 266°
2026-04-30 10:36 49.01839 2.53005 354 ft 11 kts 265°
2026-04-30 10:36 49.01833 2.52884 354 ft 12 kts 265°
2026-04-30 10:36 49.01826 2.52755 354 ft 12 kts 265°
2026-04-30 10:37 49.01817 2.52624 358 ft 13 kts 265°
2026-04-30 10:37 49.01809 2.52484 358 ft 13 kts 264°
2026-04-30 10:37 49.01832 2.52369 357 ft 11 kts 329°
2026-04-30 10:37 49.01903 2.52352 354 ft 10 kts 356°
2026-04-30 10:38 49.01965 2.52344 358 ft 8 kts 355°
2026-04-30 10:38 49.02018 2.52337 356 ft 7 kts 356°
2026-04-30 10:38 49.02063 2.52332 357 ft 6 kts 355°
2026-04-30 10:38 49.02103 2.52330 354 ft 6 kts
2026-04-30 10:39 49.02121 2.52368 362 ft 5 kts 77°
2026-04-30 10:39 49.02132 2.52574 360 ft 50 kts 85°
2026-04-30 10:39 49.02178 2.53445 361 ft 112 kts 86°
2026-04-30 10:39 49.02253 2.54876 418 ft 153 kts 85°
2026-04-30 10:40 49.02338 2.56468 1113 ft 149 kts 86°
2026-04-30 10:40 49.02415 2.58048 1885 ft 150 kts 87°
2026-04-30 10:40 49.02506 2.59618 2618 ft 147 kts 89°
2026-04-30 10:40 49.02593 2.61161 3351 ft 145 kts 91°
2026-04-30 10:41 49.02670 2.62728 3852 ft 158 kts 89°
2026-04-30 10:41 49.02758 2.64516 4174 ft 179 kts 89°
2026-04-30 10:41 49.02863 2.66485 4575 ft 194 kts 88°
2026-04-30 10:41 49.02982 2.68590 5006 ft 205 kts 88°
2026-04-30 10:42 49.03097 2.70833 5460 ft 221 kts 89°
2026-04-30 10:42 49.03301 2.73261 5971 ft 243 kts 73°
2026-04-30 10:42 49.04339 2.75404 6510 ft 268 kts 37°
2026-04-30 10:42 49.06148 2.76270 7273 ft 285 kts
2026-04-30 10:43 49.08109 2.75600 8140 ft 295 kts 341°
2026-04-30 10:43 49.09967 2.74221 9044 ft 298 kts 334°
2026-04-30 10:43 49.11789 2.72697 9965 ft 300 kts 333°
2026-04-30 10:43 49.13640 2.71155 10646 ft 309 kts 335°
2026-04-30 10:44 49.15661 2.69727 10921 ft 331 kts 340°
2026-04-30 10:44 49.17886 2.68454 11256 ft 349 kts 343°
2026-04-30 10:44 49.20210 2.67265 11962 ft 354 kts 345°
2026-04-30 10:44 49.22563 2.66111 12739 ft 357 kts 345°
2026-04-30 10:45 49.24944 2.64944 13459 ft 362 kts 344°
2026-04-30 10:45 49.27352 2.63741 14150 ft 367 kts 344°
2026-04-30 10:45 49.29785 2.62498 14781 ft 370 kts 343°
2026-04-30 10:45 49.32238 2.61229 15444 ft 373 kts 343°
2026-04-30 10:46 49.34706 2.59941 16088 ft 377 kts 343°
2026-04-30 10:46 49.37197 2.58636 16715 ft 381 kts 343°
2026-04-30 10:46 49.39719 2.57313 17350 ft 384 kts 343°
2026-04-30 10:46 49.42271 2.55975 17988 ft 388 kts 343°
2026-04-30 10:47 49.44823 2.54640 18600 ft 391 kts 343°
2026-04-30 10:47 49.47408 2.53289 19132 ft 394 kts 343°
2026-04-30 10:47 49.50014 2.51926 19673 ft 397 kts 343°
2026-04-30 10:47 49.52641 2.50551 20236 ft 400 kts 343°
2026-04-30 10:48 49.55284 2.49166 20773 ft 403 kts 344°
2026-04-30 10:48 49.57943 2.47768 21301 ft 405 kts 344°
2026-04-30 10:48 49.60621 2.46356 21793 ft 408 kts 344°
2026-04-30 10:48 49.63319 2.44935 22311 ft 412 kts 344°
2026-04-30 10:49 49.66040 2.43501 22802 ft 415 kts 344°
2026-04-30 10:49 49.68782 2.42051 23282 ft 418 kts 345°
2026-04-30 10:49 49.71537 2.40588 23770 ft 421 kts 345°
2026-04-30 10:49 49.74315 2.39109 24165 ft 423 kts 344°
2026-04-30 10:50 49.77108 2.37622 24569 ft 426 kts 344°
2026-04-30 10:50 49.79913 2.36119 24970 ft 428 kts 344°
2026-04-30 10:50 49.82725 2.34548 25357 ft 431 kts 343°
2026-04-30 10:50 49.85546 2.32916 25744 ft 434 kts 342°
2026-04-30 10:51 49.88375 2.31249 26129 ft 437 kts 342°
2026-04-30 10:51 49.91219 2.29564 26493 ft 439 kts 342°
2026-04-30 10:51 49.94087 2.27873 26864 ft 442 kts 342°
2026-04-30 10:51 49.96971 2.26185 27219 ft 445 kts 342°
2026-04-30 10:52 49.99882 2.24495 27532 ft 448 kts 343°
2026-04-30 10:52 50.02814 2.22796 27871 ft 451 kts 343°
2026-04-30 10:52 50.05764 2.21088 28224 ft 454 kts 343°
2026-04-30 10:52 50.08729 2.19369 28573 ft 456 kts 342°
2026-04-30 10:53 50.11715 2.17629 28913 ft 459 kts 342°
2026-04-30 10:53 50.14710 2.15874 29259 ft 461 kts 342°
2026-04-30 10:53 50.17724 2.14104 29580 ft 464 kts 342°
2026-04-30 10:53 50.20752 2.12327 29922 ft 466 kts 342°
2026-04-30 10:54 50.23795 2.10543 30257 ft 468 kts 342°
2026-04-30 10:54 50.26850 2.08748 30521 ft 470 kts 342°
2026-04-30 10:54 50.29915 2.06941 30797 ft 472 kts 342°
2026-04-30 10:54 50.32993 2.05126 31072 ft 473 kts 342°
2026-04-30 10:55 50.36014 2.03044 31339 ft 477 kts 334°
2026-04-30 10:55 50.38834 2.00268 31606 ft 481 kts 325°
2026-04-30 10:55 50.41405 1.96898 31959 ft 481 kts 320°
2026-04-30 10:55 50.43921 1.93450 32365 ft 479 kts 320°
2026-04-30 10:56 50.46429 1.90027 32770 ft 477 kts 321°
2026-04-30 10:56 50.48937 1.86616 33180 ft 476 kts 321°
2026-04-30 10:56 50.51433 1.83222 33558 ft 475 kts 321°
2026-04-30 10:56 50.53930 1.79824 33922 ft 474 kts 320°
2026-04-30 10:57 50.56415 1.76433 34295 ft 472 kts 320°
2026-04-30 10:57 50.58889 1.73049 34626 ft 471 kts 320°
2026-04-30 10:57 50.61354 1.69659 34950 ft 470 kts 320°
2026-04-30 10:57 50.63808 1.66271 35258 ft 468 kts 320°
2026-04-30 10:58 50.66249 1.62896 35570 ft 467 kts 320°
2026-04-30 10:58 50.68687 1.59523 35884 ft 465 kts 320°
2026-04-30 10:58 50.71116 1.56165 36177 ft 464 kts 320°
2026-04-30 10:58 50.73534 1.52814 36461 ft 462 kts 320°
2026-04-30 10:59 50.75944 1.49463 36736 ft 461 kts 319°
2026-04-30 10:59 50.78347 1.46118 37012 ft 460 kts 320°
2026-04-30 10:59 50.80798 1.42878 37273 ft 458 kts 322°
2026-04-30 10:59 50.83304 1.39769 37524 ft 457 kts 323°
2026-04-30 11:00 50.85843 1.36736 37702 ft 458 kts 324°
2026-04-30 11:00 50.88399 1.33720 37887 ft 458 kts 324°
2026-04-30 11:00 50.90946 1.30693 38099 ft 458 kts 323°
2026-04-30 11:00 50.93446 1.27673 38251 ft 459 kts 323°
2026-04-30 11:01 50.98482 1.21465 38273 ft 458 kts 322°
2026-04-30 11:01 51.03495 1.15218 38272 ft 458 kts 323°
2026-04-30 11:02 51.08505 1.08976 38273 ft 456 kts 322°
2026-04-30 11:02 51.13509 1.02752 38273 ft 457 kts 323°
2026-04-30 11:03 51.18524 0.96505 38268 ft 458 kts 323°
2026-04-30 11:04 51.26049 0.87070 38294 ft 459 kts 322°
2026-04-30 11:04 51.31062 0.80745 38300 ft 459 kts 322°
2026-04-30 11:05 51.36078 0.74413 38274 ft 460 kts 322°
2026-04-30 11:05 51.41099 0.68070 38281 ft 460 kts 322°
2026-04-30 11:06 51.46118 0.61714 38287 ft 460 kts 321°
2026-04-30 11:06 51.51123 0.55329 38288 ft 460 kts 321°
2026-04-30 11:07 51.56131 0.48933 38288 ft 460 kts 321°
2026-04-30 11:07 51.61147 0.42523 38288 ft 461 kts 321°
2026-04-30 11:08 51.66156 0.36088 38285 ft 461 kts 321°
2026-04-30 11:08 51.71169 0.29633 38306 ft 461 kts 321°
2026-04-30 11:09 51.76172 0.23171 38312 ft 461 kts 321°
2026-04-30 11:09 51.80334 0.17783 38318 ft 461 kts 321°
2026-04-30 11:10 51.85342 0.11294 38317 ft 461 kts 321°
2026-04-30 11:10 51.90343 0.04795 38313 ft 461 kts 321°
2026-04-30 11:11 51.95331 -0.01725 38282 ft 461 kts 321°
2026-04-30 11:11 52.00320 -0.08266 38273 ft 461 kts 321°
2026-04-30 11:12 52.05306 -0.14819 38273 ft 461 kts 321°
2026-04-30 11:12 52.10293 -0.21390 38283 ft 461 kts 321°
2026-04-30 11:13 52.15284 -0.27969 38288 ft 461 kts 321°
2026-04-30 11:13 52.20263 -0.34560 38288 ft 461 kts 321°
2026-04-30 11:14 52.25237 -0.41175 38285 ft 461 kts 320°
2026-04-30 11:14 52.30196 -0.47806 38277 ft 461 kts 320°
2026-04-30 11:15 52.35158 -0.54451 38279 ft 461 kts 320°
2026-04-30 11:15 52.40085 -0.61052 38282 ft 461 kts 320°
2026-04-30 11:16 52.45042 -0.67715 38280 ft 461 kts 320°
2026-04-30 11:16 52.50027 -0.74432 38281 ft 461 kts 320°
2026-04-30 11:17 52.54937 -0.81069 38280 ft 460 kts 320°
2026-04-30 11:17 52.59879 -0.87772 38287 ft 460 kts 320°
2026-04-30 11:18 52.64808 -0.94490 38229 ft 460 kts 320°
2026-04-30 11:18 52.72190 -1.04602 38214 ft 460 kts 320°
2026-04-30 11:19 52.77038 -1.11506 38276 ft 460 kts 316°
2026-04-30 11:19 52.81666 -1.18816 38277 ft 460 kts 314°
2026-04-30 11:20 52.86233 -1.26231 38278 ft 460 kts 315°
2026-04-30 11:20 52.90846 -1.33577 38279 ft 460 kts 315°
2026-04-30 11:21 52.95484 -1.40893 38283 ft 460 kts 315°
2026-04-30 11:21 53.00126 -1.48218 38274 ft 461 kts 315°
2026-04-30 11:22 53.04759 -1.55580 38291 ft 461 kts 315°
2026-04-30 11:22 53.09390 -1.62988 38267 ft 463 kts 315°
2026-04-30 11:23 53.13998 -1.70382 38265 ft 464 kts 315°
2026-04-30 11:24 53.20995 -1.81635 38266 ft 464 kts 315°
2026-04-30 11:24 53.26056 -1.88314 38253 ft 466 kts 330°
2026-04-30 11:25 53.34514 -1.96309 38265 ft 466 kts 330°
2026-04-30 11:26 53.45745 -2.07020 38288 ft 466 kts 330°
2026-04-30 11:26 53.51387 -2.12418 38265 ft 467 kts 330°
2026-04-30 11:27 53.56843 -2.18323 38253 ft 466 kts 317°
2026-04-30 11:27 53.61022 -2.26546 38251 ft 462 kts 298°
2026-04-30 11:28 53.64797 -2.41341 38237 ft 459 kts 288°
2026-04-30 11:29 53.67092 -2.51382 38245 ft 459 kts 288°
2026-04-30 11:29 53.70518 -2.66477 38258 ft 459 kts 288°
2026-04-30 11:30 53.73913 -2.81589 38269 ft 458 kts 287°
2026-04-30 11:31 53.76163 -2.91644 38272 ft 457 kts 287°
2026-04-30 11:31 53.78402 -3.01690 38237 ft 456 kts 287°
2026-04-30 11:32 53.80633 -3.11738 38231 ft 456 kts 287°
2026-04-30 11:32 53.82849 -3.21772 38254 ft 454 kts 287°
2026-04-30 11:33 53.85047 -3.31759 38070 ft 451 kts 287°
2026-04-30 11:33 53.86134 -3.36728 37798 ft 449 kts 287°
2026-04-30 11:33 53.87214 -3.41698 37527 ft 450 kts 287°
2026-04-30 11:33 53.88277 -3.46607 37263 ft 451 kts 287°
2026-04-30 11:34 53.89374 -3.51672 36997 ft 452 kts 287°
2026-04-30 11:34 53.90461 -3.56691 36677 ft 454 kts 287°
2026-04-30 11:34 53.91553 -3.61732 35905 ft 457 kts 287°
2026-04-30 11:34 53.92648 -3.66788 35364 ft 455 kts 286°
2026-04-30 11:35 53.93734 -3.71814 34842 ft 453 kts 286°
2026-04-30 11:35 53.94811 -3.76817 34312 ft 450 kts 286°
2026-04-30 11:35 53.95823 -3.81819 33732 ft 445 kts 281°
2026-04-30 11:35 53.96433 -3.86920 33217 ft 437 kts 274°
2026-04-30 11:36 53.96880 -3.92005 32700 ft 434 kts 274°
2026-04-30 11:36 53.97320 -3.96984 32196 ft 431 kts 274°
2026-04-30 11:36 53.97765 -4.01995 31690 ft 428 kts 274°
2026-04-30 11:36 53.98205 -4.06971 31203 ft 425 kts 273°
2026-04-30 11:37 53.98642 -4.11918 30717 ft 422 kts 273°
2026-04-30 11:37 53.99155 -4.16821 30212 ft 423 kts 279°
2026-04-30 11:37 54.00111 -4.21563 29691 ft 425 kts 290°
2026-04-30 11:37 54.01525 -4.25977 29205 ft 425 kts 301°
2026-04-30 11:38 54.03241 -4.30128 28732 ft 421 kts 302°
2026-04-30 11:38 54.04902 -4.34124 28251 ft 417 kts 302°
2026-04-30 11:38 54.06565 -4.38142 27807 ft 413 kts 302°
2026-04-30 11:38 54.08208 -4.42130 27366 ft 409 kts 301°
2026-04-30 11:39 54.09835 -4.46088 26942 ft 405 kts 301°
2026-04-30 11:39 54.11444 -4.50002 26521 ft 402 kts 301°
2026-04-30 11:39 54.13040 -4.53891 26082 ft 399 kts 301°
2026-04-30 11:39 54.14626 -4.57763 25632 ft 397 kts 301°
2026-04-30 11:40 54.16204 -4.61619 25190 ft 395 kts 301°
2026-04-30 11:40 54.17774 -4.65459 24751 ft 394 kts 301°
2026-04-30 11:40 54.19339 -4.69281 24296 ft 393 kts 301°
2026-04-30 11:40 54.20905 -4.73106 23834 ft 392 kts 301°
2026-04-30 11:41 54.22467 -4.76922 23319 ft 391 kts 301°
2026-04-30 11:41 54.24018 -4.80728 22863 ft 390 kts 301°
2026-04-30 11:41 54.25561 -4.84528 22406 ft 388 kts 301°
2026-04-30 11:41 54.27095 -4.88307 21951 ft 386 kts 301°
2026-04-30 11:42 54.28625 -4.92081 21500 ft 385 kts 301°
2026-04-30 11:42 54.30146 -4.95845 21056 ft 384 kts 301°
2026-04-30 11:42 54.31658 -4.99597 20614 ft 382 kts 301°
2026-04-30 11:42 54.33167 -5.03347 20161 ft 381 kts 301°
2026-04-30 11:43 54.34670 -5.07079 19728 ft 381 kts 301°
2026-04-30 11:43 54.36173 -5.10811 19291 ft 380 kts 301°
2026-04-30 11:43 54.37686 -5.14576 18502 ft 390 kts 301°
2026-04-30 11:43 54.39248 -5.18488 17518 ft 400 kts 301°
2026-04-30 11:44 54.40798 -5.22357 16904 ft 388 kts 301°
2026-04-30 11:44 54.42315 -5.26143 16158 ft 382 kts 301°
2026-04-30 11:44 54.43811 -5.29882 15395 ft 378 kts 301°
2026-04-30 11:44 54.45327 -5.33541 14631 ft 375 kts 307°
2026-04-30 11:45 54.47102 -5.36816 13881 ft 373 kts 311°
2026-04-30 11:45 54.48889 -5.40011 13095 ft 368 kts 311°
2026-04-30 11:45 54.50628 -5.43189 12367 ft 360 kts 306°
2026-04-30 11:45 54.51959 -5.46698 11946 ft 341 kts 292°
2026-04-30 11:46 54.52795 -5.50384 11564 ft 324 kts 283°
2026-04-30 11:46 54.53481 -5.54071 11256 ft 321 kts 283°
2026-04-30 11:46 54.54161 -5.57722 10880 ft 320 kts 283°
2026-04-30 11:46 54.54834 -5.61333 10628 ft 315 kts 283°
2026-04-30 11:47 54.55505 -5.64923 10249 ft 314 kts 283°
2026-04-30 11:47 54.56166 -5.68474 9675 ft 310 kts 283°
2026-04-30 11:47 54.56814 -5.71965 9205 ft 303 kts 283°
2026-04-30 11:47 54.57453 -5.75420 8814 ft 302 kts 283°
2026-04-30 11:48 54.58088 -5.78871 8412 ft 302 kts 283°
2026-04-30 11:48 54.58719 -5.82318 8013 ft 301 kts 283°
2026-04-30 11:48 54.59348 -5.85754 7597 ft 300 kts 283°
2026-04-30 11:48 54.59976 -5.89189 7190 ft 300 kts 283°
2026-04-30 11:49 54.60604 -5.92626 6794 ft 300 kts 284°
2026-04-30 11:49 54.61227 -5.96031 6371 ft 295 kts 283°
2026-04-30 11:49 54.61843 -5.99390 5737 ft 292 kts 283°
2026-04-30 11:49 54.62446 -6.02683 5305 ft 285 kts 283°
2026-04-30 11:50 54.63028 -6.05879 5147 ft 273 kts 283°
2026-04-30 11:50 54.63581 -6.08938 5017 ft 261 kts 283°
2026-04-30 11:50 54.64113 -6.11898 4689 ft 259 kts 283°
2026-04-30 11:50 54.64637 -6.14827 4372 ft 251 kts 283°
2026-04-30 11:51 54.65148 -6.17666 4221 ft 245 kts 283°
2026-04-30 11:51 54.65654 -6.20463 4106 ft 244 kts 282°
2026-04-30 11:51 54.66158 -6.23247 4002 ft 242 kts 282°
2026-04-30 11:51 54.66774 -6.25948 3998 ft 246 kts 301°
2026-04-30 11:52 54.68041 -6.27930 4011 ft 249 kts 334°
2026-04-30 11:52 54.69659 -6.28962 4012 ft 248 kts 348°
2026-04-30 11:52 54.71362 -6.29192 4015 ft 245 kts
2026-04-30 11:52 54.73070 -6.29191 4014 ft 246 kts
2026-04-30 11:53 54.74785 -6.29264 4007 ft 248 kts 354°
2026-04-30 11:53 54.76400 -6.30180 4011 ft 250 kts 330°
2026-04-30 11:53 54.77731 -6.32081 4013 ft 248 kts 306°
2026-04-30 11:53 54.78600 -6.34617 4014 ft 244 kts 292°
2026-04-30 11:54 54.79338 -6.37196 4011 ft 236 kts 292°
2026-04-30 11:54 54.80054 -6.39690 4007 ft 226 kts 292°
2026-04-30 11:54 54.80932 -6.41884 3899 ft 220 kts 318°
2026-04-30 11:54 54.82248 -6.43071 3700 ft 213 kts 350°
2026-04-30 11:55 54.83692 -6.43034 3448 ft 205 kts 21°
2026-04-30 11:55 54.84906 -6.41932 3144 ft 191 kts 51°
2026-04-30 11:55 54.85669 -6.40169 2830 ft 177 kts 76°
2026-04-30 11:55 54.85939 -6.38171 2581 ft 164 kts 98°
2026-04-30 11:56 54.85764 -6.36276 2520 ft 156 kts 116°
2026-04-30 11:56 54.85230 -6.34671 2520 ft 153 kts 132°
2026-04-30 11:56 54.84716 -6.33833 2517 ft 153 kts 143°
2026-04-30 11:56 54.83409 -6.32811 2524 ft 156 kts 158°
2026-04-30 11:57 54.82727 -6.32426 2515 ft 155 kts 158°
2026-04-30 11:57 54.81705 -6.31847 2513 ft 155 kts 158°
2026-04-30 11:57 54.80680 -6.31266 2513 ft 155 kts 158°
2026-04-30 11:57 54.79652 -6.30684 2512 ft 155 kts 159°
2026-04-30 11:58 54.78627 -6.30104 2513 ft 152 kts 158°
2026-04-30 11:58 54.77675 -6.29568 2505 ft 138 kts 157°
2026-04-30 11:58 54.76774 -6.29058 2440 ft 135 kts 156°
2026-04-30 11:58 54.75888 -6.28557 2295 ft 133 kts 156°
2026-04-30 11:59 54.75015 -6.28063 2144 ft 131 kts 156°
2026-04-30 11:59 54.74151 -6.27575 1975 ft 130 kts 156°
2026-04-30 11:59 54.73293 -6.27090 1798 ft 129 kts 156°
2026-04-30 11:59 54.72441 -6.26609 1620 ft 129 kts 155°
2026-04-30 12:00 54.71589 -6.26128 1437 ft 128 kts 155°
2026-04-30 12:00 54.70742 -6.25653 1259 ft 128 kts 154°
2026-04-30 12:00 54.69895 -6.25178 1047 ft 130 kts 153°
2026-04-30 12:00 54.69042 -6.24692 879 ft 127 kts 154°
2026-04-30 12:01 54.68197 -6.24210 762 ft 129 kts 155°
2026-04-30 12:01 54.67339 -6.23694 589 ft 132 kts 156°
2026-04-30 12:01 54.66465 -6.23223 424 ft 130 kts 158°
2026-04-30 12:01 54.65608 -6.22765 245 ft 127 kts 155°
2026-04-30 12:02 54.64853 -6.22314 240 ft 92 kts 161°
2026-04-30 12:02 54.64522 -6.22144 249 ft 19 kts 163°
2026-04-30 12:02 54.64408 -6.22084 254 ft 16 kts 161°
2026-04-30 12:02 54.64310 -6.22028 258 ft 14 kts 162°
2026-04-30 12:03 54.64239 -6.21948 263 ft 11 kts 133°
2026-04-30 12:03 54.64283 -6.22016 260 ft 13 kts 342°
2026-04-30 12:03 54.64389 -6.22074 255 ft 18 kts 341°
2026-04-30 12:04 54.64516 -6.22145 249 ft 20 kts 342°
2026-04-30 12:04 54.64648 -6.22217 246 ft 20 kts 342°
2026-04-30 12:04 54.64783 -6.22293 242 ft 21 kts 342°
2026-04-30 12:04 54.64923 -6.22374 237 ft 22 kts 341°
2026-04-30 12:05 54.65068 -6.22454 234 ft 22 kts 342°
2026-04-30 12:05 54.65220 -6.22538 232 ft 23 kts 342°
2026-04-30 12:05 54.65377 -6.22627 226 ft 18 kts 343°
2026-04-30 12:05 54.65488 -6.22690 229 ft 16 kts 341°
2026-04-30 12:06 54.65604 -6.22754 225 ft 20 kts 343°
2026-04-30 12:06 54.65700 -6.22795 221 ft 13 kts 14°
2026-04-30 12:06 54.65744 -6.22660 219 ft 13 kts 79°
2026-04-30 12:06 54.65753 -6.22515 221 ft 11 kts 84°
2026-04-30 12:07 54.65761 -6.22399 225 ft 9 kts 82°
2026-04-30 12:07 54.65768 -6.22308 227 ft 7 kts 83°
2026-04-30 12:07 54.65773 -6.22231 229 ft 6 kts 83°
2026-04-30 12:07 54.65782 -6.22157 230 ft 6 kts 76°
2026-04-30 12:08 54.65800 -6.22079 233 ft 8 kts 65°
2026-04-30 12:08 54.65822 -6.21989 233 ft 9 kts 66°
2026-04-30 12:08 54.65850 -6.21886 234 ft 10 kts 65°
2026-04-30 12:08 54.65880 -6.21774 236 ft 11 kts 65°
2026-04-30 12:09 54.65912 -6.21657 238 ft 11 kts 61°
2026-04-30 12:09 54.65958 -6.21601 238 ft 9 kts
2026-04-30 12:09 54.66014 -6.21640 237 ft 7 kts 322°
2026-04-30 12:09 54.66008 -6.21727 239 ft 5 kts 245°
2026-04-30 12:10 54.65995 -6.21771 239 ft 5 kts 244°
2026-04-30 12:10 54.65993 -6.21781 238 ft 0 kts 245°